Regional Weather Roundup
Issued by NWS

Home | Current Version | Previous Version | Graphics & Text | Print | Product List | Glossary On
Versions: 1 2 3 4 5 6 7 8 9 10 11 12 13 14 15 16 17 18 19 20 21 22 23 24 25 26 27 28 29 30 31 32 33 34 35 36 37 38 39 40 41 42 43 44 45 46 47 48 49 50
000
ASUS43 KLSX 091710
RWRMO

WEATHER SUMMARY FOR MISSOURI
NATIONAL WEATHER SERVICE SPRINGFIELD MO
1100 AM CST TUE FEB 09 2016

NOTE: "FAIR" INDICATES FEW OR NO CLOUDS BELOW 12,000 FEET WITH NO
       SIGNIFICANT WEATHER AND/OR OBSTRUCTIONS TO VISIBILITY.
       CURRENT SKY AND/OR WEATHER CONDITIONS ARE NOT AVAILABLE FOR
       CHILLICOTHE AND FARMINGTON.

MOZ001>031-035>038-043-044-053-054-091800-
...NORTHERN AND WESTERN MISSOURI...

CITY           SKY/WX    TMP DP  RH WIND       PRES   REMARKS
KANSAS CTY INT MOSUNNY   22  10  60 NW21G30   30.19R WCI   6
KANSAS C DTWN  SUNNY     24   9  52 NW17G26   30.20R WCI  11
LEE`S SUMMIT   SUNNY     23   8  52 NW21      30.18R WCI   8
ST JOSEPH      MOSUNNY   22   8  55 NW22G32   30.22R WCI   6
CHILLICOTHE      N/A     20   8  60 NW13G24   30.17R WCI   7
KIRKSVILLE     FLURRIES  19   6  57 NW15G24   30.08R WCI   5

$$
MOZ066>068-077>081-088>096-101>105-091800-
...SOUTHWEST MISSOURI...

CITY           SKY/WX    TMP DP  RH WIND       PRES   REMARKS
SPRINGFIELD    MOSUNNY   29   9  43 NW25G41   30.10R WCI  14
JOPLIN         SUNNY     33  10  38 NW17      30.19R WCI  22

$$
MOZ032>034-039>042-045>050-055>058-069>072-091800-
...CENTRAL MISSOURI...

CITY           SKY/WX    TMP DP  RH WIND       PRES   REMARKS
COLUMBIA       PTSUNNY   21   8  57 NW17      30.08R WCI   7
JEFFERSON CITY CLOUDY    21   7  54 NW16G25   30.11R WCI   7
ROLLA          CLOUDY    20   9  62 W18       30.03R WCI   5
SEDALIA        MOSUNNY   22   9  57 NW21      30.15R WCI   6
WHITEMAN AFB   MOSUNNY   22   9  56 NW15      30.14R WCI   9
WARRENSBURG    SUNNY     23  10  58 NW16G24   30.18R WCI  10
OSAGE BEACH    CLOUDY    21   7  53 W10G20    30.11R WCI  10

$$
MOZ051-052-059>065-091800-
...EAST CENTRAL MISSOURI...

CITY           SKY/WX    TMP DP  RH WIND       PRES   REMARKS
ST LOUIS INTL  FLURRIES  21   9  59 NW15G24   30.02R WCI   8
SPIRIT OF STL  CLOUDY    20  10  65 NW20G26   30.04R WCI   4
ST CHARLES     LGT SNOW  19  10  68 NW17G26   30.03R WCI   4

$$
MOZ072>076-082>087-097>100-106>115-091800-
...SOUTH CENTRAL AND SOUTHEAST MISSOURI...

CITY           SKY/WX    TMP DP  RH WIND       PRES   REMARKS
CAPE GIRARDEAU CLOUDY    24  15  68 NW17G23   30.02R WCI  11
FARMINGTON     FLURRIES  20  11  68 NW12      30.00R WCI   8
POPLAR BLUFF   CLOUDY    28  11  48 NW14G23   30.03R WCI  17
WEST PLAINS    CLOUDY    24   9  52 NW16G26   30.04R WCI  11

$$



USA.gov is the U.S. government's official web portal to all federal, state and local government web resources and services.